Time,TemperatureF,DewpointF,PressureIn,WindDirection,WindDirectionDegrees,WindSpeedMPH,WindSpeedGustMPH,Humidity,HourlyPrecipIn,Conditions,Clouds,dailyrainin,SolarRadiationWatts/m^2,SoftwareType,DateUTC
2014-08-27 00:01:00,62.1,56.2,29.96,SSW,201,0.0,4.0,81,0.00,,,0.00,0,WeatherCatV2.00B4410,2014-08-27 07:01:00,
2014-08-27 00:06:00,62.0,56.1,29.96,SSE,154,0.0,0.0,81,0.00,,,0.00,0,WeatherCatV2.00B4410,2014-08-27 07:06:00,
2014-08-27 00:11:00,61.9,56.3,29.96,ESE,103,0.0,0.0,82,0.00,,,0.00,0,WeatherCatV2.00B4410,2014-08-27 07:11:00,
2014-08-27 00:16:00,61.8,56.2,29.96,ESE,104,0.0,1.0,82,0.00,,,0.00,0,WeatherCatV2.00B4410,2014-08-27 07:16:00,
2014-08-27 00:21:00,61.7,56.5,29.96,ESE,104,0.0,0.0,83,0.00,,,0.00,0,WeatherCatV2.00B4410,2014-08-27 07:21:00,
2014-08-27 00:26:00,61.6,56.4,29.96,ESE,104,0.0,0.0,83,0.00,,,0.00,0,WeatherCatV2.00B4410,2014-08-27 07:26:00,
2014-08-27 00:31:00,61.5,56.3,29.96,ESE,104,0.0,0.0,83,0.00,,,0.00,0,WeatherCatV2.00B4410,2014-08-27 07:31:00,
2014-08-27 00:36:00,61.4,56.2,29.96,ESE,104,0.0,0.0,83,0.00,,,0.00,0,WeatherCatV2.00B4410,2014-08-27 07:36:00,
2014-08-27 00:41:00,61.3,56.1,29.96,ESE,104,0.0,1.0,83,0.00,,,0.00,0,WeatherCatV2.00B4410,2014-08-27 07:41:00,
2014-08-27 00:46:00,61.2,56.0,29.96,ESE,105,0.0,1.0,83,0.00,,,0.00,0,WeatherCatV2.00B4410,2014-08-27 07:46:00,
2014-08-27 00:51:00,61.1,55.9,29.96,North,350,0.0,0.0,83,0.00,,,0.00,0,WeatherCatV2.00B4410,2014-08-27 07:51:00,
2014-08-27 00:56:00,61.1,55.9,29.96,North,351,0.0,0.0,83,0.00,,,0.00,0,WeatherCatV2.00B4410,2014-08-27 07:56:00,
2014-08-27 01:01:00,61.0,55.8,29.96,WSW,244,0.0,0.0,83,0.00,,,0.00,0,WeatherCatV2.00B4410,2014-08-27 08:01:00,
2014-08-27 01:06:00,61.0,55.8,29.96,WSW,244,0.0,1.0,83,0.00,,,0.00,0,WeatherCatV2.00B4410,2014-08-27 08:06:00,
2014-08-27 01:11:00,61.0,55.8,29.96,WSW,244,0.0,0.0,83,0.00,,,0.00,0,WeatherCatV2.00B4410,2014-08-27 08:11:00,
2014-08-27 01:16:00,60.9,55.7,29.96,WSW,244,0.0,0.0,83,0.00,,,0.00,0,WeatherCatV2.00B4410,2014-08-27 08:16:00,
2014-08-27 01:21:00,60.9,56.0,29.96,WSW,244,0.0,0.0,84,0.00,,,0.00,0,WeatherCatV2.00B4410,2014-08-27 08:21:00,
2014-08-27 01:26:00,60.8,55.9,29.96,WSW,244,0.0,0.0,84,0.00,,,0.00,0,WeatherCatV2.00B4410,2014-08-27 08:26:00,
2014-08-27 01:31:00,60.8,55.9,29.97,WSW,244,0.0,0.0,84,0.00,,,0.00,0,WeatherCatV2.00B4410,2014-08-27 08:31:00,
2014-08-27 01:36:00,60.8,56.3,29.97,WSW,244,0.0,0.0,85,0.00,,,0.00,0,WeatherCatV2.00B4410,2014-08-27 08:36:00,
2014-08-27 01:41:00,60.8,56.3,29.97,WSW,244,0.0,0.0,85,0.00,,,0.00,0,WeatherCatV2.00B4410,2014-08-27 08:41:00,
2014-08-27 01:46:00,60.7,56.2,29.96,NE,51,0.0,1.0,85,0.00,,,0.00,0,WeatherCatV2.00B4410,2014-08-27 08:46:00,
2014-08-27 01:51:00,60.8,56.3,29.96,South,178,0.0,0.0,85,0.00,,,0.00,0,WeatherCatV2.00B4410,2014-08-27 08:51:00,
2014-08-27 01:56:00,60.8,56.3,29.96,SSE,153,0.0,1.0,85,0.00,,,0.00,0,WeatherCatV2.00B4410,2014-08-27 08:56:00,
2014-08-27 02:01:00,60.8,56.6,29.96,SE,146,0.0,1.0,86,0.00,,,0.00,0,WeatherCatV2.00B4410,2014-08-27 09:01:00,
2014-08-27 02:06:00,60.7,56.5,29.97,SE,142,0.0,2.0,86,0.00,,,0.00,0,WeatherCatV2.00B4410,2014-08-27 09:06:00,
2014-08-27 02:11:00,60.7,56.5,29.96,ENE,65,0.0,1.0,86,0.00,,,0.00,0,WeatherCatV2.00B4410,2014-08-27 09:11:00,
2014-08-27 02:16:00,60.7,56.5,29.97,ENE,65,0.0,0.0,86,0.00,,,0.00,0,WeatherCatV2.00B4410,2014-08-27 09:16:00,
2014-08-27 02:21:00,60.7,56.5,29.97,ENE,71,0.0,1.0,86,0.00,,,0.00,0,WeatherCatV2.00B4410,2014-08-27 09:21:00,
2014-08-27 02:26:00,60.7,56.8,29.97,ENE,73,0.0,0.0,87,0.00,,,0.00,0,WeatherCatV2.00B4410,2014-08-27 09:26:00,
2014-08-27 02:31:00,60.6,56.7,29.97,ENE,73,0.0,0.0,87,0.00,,,0.00,0,WeatherCatV2.00B4410,2014-08-27 09:31:00,
2014-08-27 02:36:00,60.7,56.8,29.97,ENE,72,0.0,0.0,87,0.00,,,0.00,0,WeatherCatV2.00B4410,2014-08-27 09:36:00,
2014-08-27 02:41:00,60.7,56.5,29.97,ENE,72,0.0,0.0,86,0.00,,,0.00,0,WeatherCatV2.00B4410,2014-08-27 09:41:00,
2014-08-27 02:46:00,60.7,56.5,29.97,ENE,72,0.0,0.0,86,0.00,,,0.00,0,WeatherCatV2.00B4410,2014-08-27 09:46:00,
2014-08-27 02:51:00,60.6,56.4,29.97,ENE,73,0.0,0.0,86,0.00,,,0.00,0,WeatherCatV2.00B4410,2014-08-27 09:51:00,
2014-08-27 02:56:00,60.6,56.4,29.97,ENE,72,0.0,0.0,86,0.00,,,0.00,0,WeatherCatV2.00B4410,2014-08-27 09:56:00,
2014-08-27 03:02:00,60.6,56.4,29.97,ENE,73,0.0,0.0,86,0.00,,,0.00,0,WeatherCatV2.00B4410,2014-08-27 10:02:00,
2014-08-27 03:07:00,60.5,56.3,29.98,ENE,72,0.0,0.0,86,0.00,,,0.00,0,WeatherCatV2.00B4410,2014-08-27 10:07:00,
2014-08-27 03:12:00,60.5,56.3,29.98,East,80,0.0,0.0,86,0.00,,,0.00,0,WeatherCatV2.00B4410,2014-08-27 10:12:00,
2014-08-27 03:17:00,60.4,56.5,29.98,East,80,0.0,0.0,87,0.00,,,0.00,0,WeatherCatV2.00B4410,2014-08-27 10:17:00,
2014-08-27 03:22:00,60.4,56.5,29.98,East,80,0.0,0.0,87,0.00,,,0.00,0,WeatherCatV2.00B4410,2014-08-27 10:22:00,
2014-08-27 03:27:00,60.4,56.5,29.98,East,80,0.0,0.0,87,0.00,,,0.00,0,WeatherCatV2.00B4410,2014-08-27 10:27:00,
2014-08-27 03:32:00,60.4,56.5,29.98,East,80,0.0,0.0,87,0.00,,,0.00,0,WeatherCatV2.00B4410,2014-08-27 10:32:00,
2014-08-27 03:37:00,60.4,56.5,29.98,East,82,0.0,0.0,87,0.00,,,0.00,0,WeatherCatV2.00B4410,2014-08-27 10:37:00,
2014-08-27 03:42:00,60.3,56.4,29.98,East,82,0.0,0.0,87,0.00,,,0.00,0,WeatherCatV2.00B4410,2014-08-27 10:42:00,
2014-08-27 03:47:00,60.2,56.3,29.98,East,82,0.0,0.0,87,0.00,,,0.00,0,WeatherCatV2.00B4410,2014-08-27 10:47:00,
2014-08-27 03:52:00,60.1,56.2,29.98,East,82,0.0,0.0,87,0.00,,,0.00,0,WeatherCatV2.00B4410,2014-08-27 10:52:00,
2014-08-27 03:57:00,60.0,56.1,29.98,East,82,0.0,0.0,87,0.00,,,0.00,0,WeatherCatV2.00B4410,2014-08-27 10:57:00,
2014-08-27 04:02:00,59.9,56.0,29.98,ENE,58,0.0,3.0,87,0.00,,,0.00,0,WeatherCatV2.00B4410,2014-08-27 11:02:00,
2014-08-27 04:07:00,59.9,56.0,29.98,ENE,59,0.0,0.0,87,0.00,,,0.00,0,WeatherCatV2.00B4410,2014-08-27 11:07:00,
2014-08-27 04:12:00,59.8,56.2,29.98,ENE,59,0.0,0.0,88,0.00,,,0.00,0,WeatherCatV2.00B4410,2014-08-27 11:12:00,
2014-08-27 04:17:00,59.8,56.2,29.98,ENE,59,0.0,0.0,88,0.00,,,0.00,0,WeatherCatV2.00B4410,2014-08-27 11:17:00,
2014-08-27 04:22:00,59.8,56.2,29.98,ENE,59,0.0,0.0,88,0.00,,,0.00,0,WeatherCatV2.00B4410,2014-08-27 11:22:00,
2014-08-27 04:27:00,59.8,56.2,29.98,ENE,59,0.0,0.0,88,0.00,,,0.00,0,WeatherCatV2.00B4410,2014-08-27 11:27:00,
2014-08-27 04:32:00,59.7,56.1,29.98,ENE,59,0.0,0.0,88,0.00,,,0.00,0,WeatherCatV2.00B4410,2014-08-27 11:32:00,
2014-08-27 04:37:00,59.7,56.1,29.98,ENE,59,0.0,0.0,88,0.00,,,0.00,0,WeatherCatV2.00B4410,2014-08-27 11:37:00,
2014-08-27 04:42:00,59.7,56.1,29.98,ENE,59,0.0,0.0,88,0.00,,,0.00,0,WeatherCatV2.00B4410,2014-08-27 11:42:00,
2014-08-27 04:47:00,59.6,56.0,29.98,ENE,59,0.0,0.0,88,0.00,,,0.00,0,WeatherCatV2.00B4410,2014-08-27 11:47:00,
2014-08-27 04:52:00,59.6,56.0,29.98,ENE,59,0.0,0.0,88,0.00,,,0.00,0,WeatherCatV2.00B4410,2014-08-27 11:52:00,
2014-08-27 04:57:00,59.6,56.0,29.98,ENE,59,0.0,0.0,88,0.00,,,0.00,0,WeatherCatV2.00B4410,2014-08-27 11:57:00,
2014-08-27 05:02:00,59.6,56.0,29.99,ENE,59,0.0,0.0,88,0.00,,,0.00,0,WeatherCatV2.00B4410,2014-08-27 12:02:00,
2014-08-27 05:07:00,59.6,56.0,29.99,ENE,59,0.0,0.0,88,0.00,,,0.00,0,WeatherCatV2.00B4410,2014-08-27 12:07:00,